Location: Delia
(51.6321°N, 112.3740°W)
Time: 20:18:09
(UTC+00:00)

Envisat - Pass Details

Date: 03 December 2021
Orbit: 764 x 766 km, 98.2° (Epoch: 26 January)

Event Time Altitude Azimuth Distance (km) Brightness Sun altitude
Rises 00:45:43 0° 206° (SSW) 3,222 7.0 -12.2°
Reaches altitude 10° 00:48:34 10° 222° (SW) 2,302 6.5 -12.6°
Maximum altitude 00:52:21 21° 270° (W) 1,685 5.7 -13.2°
Drops below altitude 10° 00:56:09 10° 319° (NW) 2,315 5.8 -13.7°
Sets 00:59:03 0° 335° (NNW) 3,247 6.3 -14.2°
